TELLUMGE Weather Reports


Display with metric or nautical units.
time (UTC)temp
F
wind
direction
speed
MPH
gust
MPH
rain 1hr
in
rain 24hr
in
rain mn
in
humidity
%
barometer
mb
20260508193008 58 60 0.0 1.0 0.00 0.00 0.00 59 1018.5
20260508191515 59 66 1.0 2.0 0.00 0.00 0.00 57 1018.3
20260508190024 60 58 1.0 3.0 0.00 0.00 0.00 54 1018.3
20260508181512 64 23 0.0 4.0 0.00 0.00 0.00 37 1018.0
20260508180021 64 27 1.0 3.0 0.00 0.00 0.00 39 1018.0
20260508174520 64 41 0.0 3.0 0.00 0.00 0.00 42 1018.0
20260508170017 64 103 0.0 2.0 0.00 0.00 0.00 52 1018.0
20260508164518 65 57 1.0 4.0 0.00 0.00 0.00 47 1018.1
20260508163020 65 72 1.0 3.0 0.00 0.00 0.00 44 1017.9
20260508161527 65 88 0.0 4.0 0.00 0.00 0.00 42 1018.0
20260508160012 65 60 1.0 3.0 0.00 0.00 0.00 44 1018.0
20260508154513 65 46 0.0 1.0 0.00 0.00 0.00 41 1018.0
20260508153019 66 23 0.0 3.0 0.00 0.00 0.00 42 1018.2
20260508151520 67 58 0.0 5.0 0.00 0.00 0.00 37 1018.2
20260508150032 67 48 0.0 5.0 0.00 0.00 0.00 40 1018.2
20260508144512 67 112 1.0 4.0 0.00 0.00 0.00 44 1018.4
20260508143019 66 60 1.0 6.0 0.00 0.00 0.00 47 1018.5
20260508141518 66 52 1.0 4.0 0.00 0.00 0.00 56 1018.5
20260508140022 65 65 2.0 5.0 0.00 0.00 0.00 52 1018.5
20260508134531 66 65 0.0 2.0 0.00 0.00 0.00 54 1018.7
20260508133017 67 73 0.0 6.0 0.00 0.00 0.00 52 1018.8
20260508131516 66 78 0.0 2.0 0.00 0.00 0.00 55 1018.9
20260508130022 67 62 0.0 3.0 0.00 0.00 0.00 51 1019.1
20260508124522 67 70 0.0 5.0 0.00 0.00 0.00 53 1019.3
20260508123028 67 82 0.0 3.0 0.00 0.00 0.00 55 1019.3
20260508121546 67 63 0.0 3.0 0.00 0.00 0.00 59 1019.3
20260508120004 66 62 1.0 3.0 0.00 0.00 0.00 61 1019.3
20260508114504 65 82 0.0 3.0 0.00 0.00 0.00 70 1019.4
20260508113004 65 86 0.0 2.0 0.00 0.00 0.00 71 1019.4
20260508111504 67 94 0.0 1.0 0.00 0.00 0.00 67 1019.5
20260508104504 68 30 0.0 4.0 0.00 0.00 0.00 66 1019.4
20260508103012 68 73 0.0 2.0 0.00 0.00 0.00 70 1019.2
20260508101506 68 38 1.0 6.0 0.00 0.00 0.00 70 1019.1
20260508100006 68 61 0.0 1.0 0.00 0.00 0.00 73 1018.9
20260508094507 69 26 0.0 3.0 0.00 0.00 0.00 70 1018.8
20260508093005 69 76 0.0 3.0 0.00 0.00 0.00 70 1018.9
20260508091511 70 78 1.0 5.0 0.00 0.00 0.00 68 1018.7
20260508090008 71 53 0.0 3.0 0.00 0.00 0.00 70 1018.2
20260508083020 71 129 0.0 4.0 0.00 0.00 0.00 70 1017.7
20260508081508 71 248 0.0 3.0 0.00 0.00 0.00 72 1017.6
20260508080005 71 54 0.0 3.0 0.00 0.00 0.00 71 1017.5
20260508074507 71 168 0.0 3.0 0.00 0.00 0.00 71 1017.3
20260508073006 71 117 0.0 1.0 0.00 0.00 0.00 72 1017.2
20260508070009 72 165 0.0 2.0 0.00 0.00 0.00 72 1016.6
20260508064515 73 64 0.0 4.0 0.00 0.00 0.00 72 1016.3
20260508060009 75 127 0.0 3.0 0.00 0.00 0.00 70 1016.1
20260508054504 75 224 0.0 3.0 0.00 0.00 0.00 71 1016.1
20260508053010 75 155 0.0 3.0 0.00 0.00 0.00 70 1016.1
20260508044512 76 292 0.0 2.0 0.00 0.00 0.00 69 1016.3
20260508043004 76 101 0.0 5.0 0.00 0.00 0.00 69 1016.2
20260508040011 79 155 0.0 4.0 0.00 0.00 0.00 60 1016.4
20260508033010 79 59 0.0 3.0 0.00 0.00 0.00 57 1016.4
20260508031503 79 77 0.0 3.0 0.00 0.00 0.00 55 1016.7
20260508030008 79 59 1.0 5.0 0.00 0.00 0.00 57 1016.9
20260508024522 79 201 0.0 3.0 0.00 0.00 0.00 59 1017.1
20260508021517 78 307 0.0 5.0 0.00 0.00 0.00 56 1017.7
20260508020013 78 37 2.0 6.0 0.00 0.00 0.00 53 1018.1
20260508014507 77 60 2.0 4.0 0.00 0.00 0.00 55 1018.2
20260508013014 77 61 1.0 5.0 0.00 0.00 0.00 54 1018.5
20260508011517 77 105 0.0 4.0 0.00 0.00 0.00 55 1018.6
20260508010022 76 37 1.0 4.0 0.00 0.00 0.00 55 1018.9
20260508004520 75 305 1.0 7.0 0.00 0.00 0.00 55 1018.9
20260507234520 75 68 1.0 10.0 0.00 0.00 0.00 54 1018.9
20260507233020 74 72 3.0 11.0 0.00 0.00 0.00 56 1018.9
20260507231514 74 92 2.0 6.0 0.00 0.00 0.00 57 1018.8
20260507230016 73 60 1.0 7.0 0.00 0.00 0.00 60 1018.8
20260507224519 72 20 1.0 7.0 0.00 0.00 0.00 61 1018.8
20260507223021 71 82 3.0 13.0 0.00 0.00 0.00 62 1018.4
20260507221520 70 29 2.0 6.0 0.00 0.00 0.00 64 1018.3
20260507220013 68 18 0.0 3.0 0.00 0.00 0.00 71 1018.3
20260507214519 67 55 0.0 4.0 0.00 0.00 0.00 76 1018.1
20260507213028 68 34 0.0 7.0 0.00 0.00 0.00 69 1017.8
20260507211522 67 6 0.0 2.0 0.00 0.00 0.00 76 1017.7
20260507210008 66 61 0.0 3.0 0.00 0.00 0.00 77 1017.8
20260507204516 67 71 1.0 5.0 0.00 0.00 0.00 72 1017.5
20260507203004 67 83 0.0 7.0 0.00 0.00 0.00 74 1017.2
20260507201504 67 27 0.0 3.0 0.00 0.00 0.00 78 1016.9